Date,TemperatureHighF,TemperatureAvgF,TemperatureLowF,DewpointHighF,DewpointAvgF,DewpointLowF,HumidityHigh,HumidityAvg,HumidityLow,PressureMaxIn,PressureMinIn,WindSpeedMaxMPH,WindSpeedAvgMPH,GustSpeedMaxMPH,PrecipitationSumIn
2013-3-2,36.1,33.0,29.8,26.7,25.6,24.4,85,74,67,29.83,29.79,12,4,12,1.61
2013-3-3,34.9,29.7,26.2,25.4,22.1,18.9,82,73,59,29.83,29.75,12,5,12,0.00
2013-3-4,39.0,31.5,25.9,24.6,21.6,19.1,78,67,53,29.96,29.81,18,7,18,0.00
2013-3-5,49.1,37.2,27.7,29.9,25.5,21.0,78,64,47,30.16,29.96,14,4,14,0.00
2013-3-6,42.3,36.8,34.2,38.1,31.4,27.7,92,81,66,30.15,30.06,25,7,25,0.00
2013-3-7,35.8,32.8,31.1,33.0,30.6,28.3,99,92,77,30.17,30.07,21,8,21,0.05
2013-3-8,39.0,34.3,30.7,34.7,30.6,23.0,99,87,62,30.29,30.08,14,2,14,0.27
2013-3-9,57.9,40.7,30.2,27.8,22.9,16.7,84,53,22,30.46,30.28,10,4,10,0.31
2013-3-10,50.2,36.9,24.3,34.8,29.9,23.2,98,77,50,30.52,30.43,10,3,10,0.00
2013-3-11,51.6,42.4,35.1,44.4,38.8,32.7,99,88,70,30.45,30.24,13,5,13,0.00
2013-3-12,52.7,49.1,39.4,52.4,48.1,37.6,99,97,91,30.25,29.82,17,7,17,1.61
2013-3-13,52.0,40.6,29.5,37.6,29.8,25.2,96,69,40,29.98,29.88,12,4,12,0.02
2013-3-14,46.9,32.2,27.5,26.1,16.4,12.7,59,52,41,30.01,29.89,17,6,17,0.02
2013-3-15,44.2,32.7,23.5,30.0,19.2,11.4,81,58,35,30.05,29.82,15,5,15,0.00
2013-3-16,38.3,32.3,27.5,30.0,22.2,13.3,93,68,40,30.01,29.86,8,3,8,0.00
2013-3-17,37.8,30.0,23.4,28.2,12.4,6.0,88,50,28,30.43,30.01,19,4,19,0.00
2013-3-18,37.8,28.1,18.5,28.0,10.9,1.4,99,52,29,30.56,30.24,12,3,12,0.14
2013-3-19,36.9,31.9,28.2,35.2,31.5,28.0,99,98,93,30.24,29.77,12,4,12,0.61
2013-3-20,45.1,33.5,25.3,30.8,20.2,16.5,96,60,36,29.95,29.87,13,4,13,0.09
2013-3-21,38.7,31.7,27.9,25.1,19.6,11.1,84,62,41,29.95,29.74,10,3,10,0.00
2013-3-22,41.5,31.7,21.9,23.7,18.1,11.5,73,58,45,29.94,29.80,13,4,13,0.00
2013-3-23,46.4,36.3,28.6,26.5,21.1,17.7,76,56,35,30.00,29.85,19,6,19,0.00
2013-3-24,48.0,36.8,24.8,26.0,22.5,18.7,81,57,40,30.03,29.84,12,3,12,0.00
2013-3-25,46.4,38.1,31.3,30.1,26.5,23.5,75,63,48,29.88,29.58,17,5,17,0.00
2013-3-26,51.6,40.1,32.2,30.4,25.5,18.7,78,58,33,29.95,29.68,12,3,12,0.00
2013-3-27,55.9,40.0,28.4,27.9,23.5,19.3,70,54,29,30.04,29.93,16,4,16,0.00
2013-3-28,54.9,42.5,35.1,35.6,31.3,27.2,83,65,43,30.19,30.03,12,3,12,0.00
2013-3-29,56.7,45.5,32.7,33.8,30.4,27.6,84,57,38,30.22,30.13,13,4,13,0.00
2013-3-30,61.3,45.5,31.6,32.5,26.1,19.9,86,51,24,30.25,30.16,10,3,10,0.00
2013-3-31,55.6,43.6,28.6,42.3,29.6,-45.5,99,60,37,30.26,29.79,21,4,21,0.20